THOR ABLESTAR DEB, 480

Orbit data source: Space-Track

THOR ABLESTAR DEB, 480 is space debris in LEO originally from a launch on Thu, 29 Jun 1961 UTC launched from the Air Force Eastern Test Range (AFETR). Debris objects in space refer to the collection of defunct objects orbiting the Earth. Examples of debris include non-operational satellites, rocket bodies, and fragments generated from explosions, collisions, or faulty payload assembly.

Loading next visibility...
Identifier
480, 1961-015FS
Orbit
LEO
Country
Flag of USUS
Related business
Manufacturer
Unknown
Mission
Spacecraft
Bus & Motor
Unknown
Mass
Unknown
Launch date (UTC)
1961-06-29 (64 years ago)
Launch vehicle
Unknown
Launch site
Air Force Eastern Test Range (AFETR)
Object type
Payload
Rocket body
Debris
Shape & HBR
Unknown shape, 0.2 m
Radar Cross Section
Small (<0.1 m²)

Expand to show TLE details & history
Last TLE update: 20 hours ago

TLE from 20 hours ago
0 THOR ABLESTAR DEB
1 00480U 61015FS  25309.13177639  .00002581  00000-0  79003-3 0  9999
2 00480  66.2374 309.9967 0087286 281.6968  77.4347 14.41264515322514
Epoch: 2025-11-05T03:09Z
TLE epoch observation values (Epoch: 2025-11-05T03:09:45.480Z)
Latitude
-0.00004°
Longitude
-142.05166°
Altitude
743.379 km
Speed
7.49 km/s
True Right ascension
20h 39m 59s
True Declination
0° 00' 00"
Sunlit
Object was in daylight at epoch
Visualization orbit readout
Latitude
Unknown
Longitude
Unknown
Altitude
Unknown
Speed
Unknown
Apparent Right ascension
Unknown
Apparent Declination
Unknown
Sunlit
N/A
Visualization observer readout
Local Sidereal Time
18:41:53
Azimuth
Unknown
Elevation
Unknown
Doppler factor
Unknown
Orbital elements
Apogee altitude
814.987 km
Perigee altitude
690.502 km
Semi-major axis
7,130.881 km
Eccentricity
0.00873
Inclination
66.2374°
RAAN
309.9967°
Arg. of periapsis
281.6968°
True anomaly
78.41324°
Mean anomaly
77.4347°
Eccentric anomaly
77.92374°
Mean motion
3.60436 °/min
Orbital period
99.88 mins
BSTAR
0.00079003
Loading maneuver chart data...
Computing Atmospheric mass density...
Loading historical data...
Loading historical data...
Loading historical data...
Loading historical data...
Loading historical data...
Loading historical data...
Loading historical data...

Documentation

Showing up to 5 results
|